Location: ECC Obs
(38.4314°N, 90.9815°W)
Time: 21:23:25
(UTC-05:00)

Transit 2A Rocket - All Passes

Search period start: 03 April 2020 00:00
Search period end: 13 April 2020 00:00
Orbit: 589 x 914 km, 66.7° (Epoch: 03 April)

Date Brightness Start Highest point End Pass type
(mag) Time Alt. Az. Time Alt. Az. Time Alt. Az.
03 Apr - 12:36:47 10° S 12:40:54 42° ESE 12:45:20 10° NE daylight
03 Apr - 14:20:17 10° W 14:23:42 21° NW 14:27:19 10° N daylight
03 Apr - 21:20:30 10° N 21:25:30 31° NE 21:30:45 10° ESE visible
03 Apr - 23:02:47 10° NW 23:08:13 43° WSW 23:13:52 10° S visible
04 Apr - 11:55:14 10° SSE 11:58:36 22° ESE 12:02:09 10° ENE daylight
04 Apr - 13:36:47 10° WSW 13:40:52 35° NW 13:45:17 10° NNE daylight
04 Apr - 20:38:32 10° N 20:42:39 20° NE 20:46:55 10° E visible
04 Apr - 22:20:01 10° NNW 22:25:44 72° WSW 22:31:46 10° SSE visible
05 Apr - 11:15:13 10° ESE 11:16:25 11° ESE 11:17:38 10° E daylight
05 Apr - 12:53:48 10° SW 12:58:11 64° WNW 13:02:58 10° NNE daylight
05 Apr - 19:57:06 10° NNE 19:59:39 13° NE 20:02:15 10° ENE visible
05 Apr - 21:37:28 10° NNW 21:43:11 69° ENE 21:49:13 10° SE visible
05 Apr - 23:21:34 10° WNW 23:25:18 18° WSW 23:29:08 10° SW visible
06 Apr - 12:11:18 10° SSW 12:15:40 66° ESE 12:20:23 10° NNE daylight
06 Apr - 13:56:07 10° W 13:58:49 15° NW 14:01:38 10° N daylight
06 Apr - 20:55:07 10° NNW 21:00:32 42° NE 21:06:13 10° SE visible
06 Apr - 22:38:00 10° NW 22:43:00 30° WSW 22:48:11 10° SSW visible
07 Apr - 11:29:20 10° S 11:33:17 33° ESE 11:37:32 10° NE daylight
07 Apr - 13:12:09 10° WSW 13:15:54 25° NW 13:19:53 10° N daylight
07 Apr - 20:12:59 10° N 20:17:45 27° NE 20:22:45 10° ESE visible
07 Apr - 21:55:01 10° NW 22:00:36 51° WSW 22:06:27 10° S visible
08 Apr - 10:48:05 10° SSE 10:51:02 18° ESE 10:54:06 10° ENE daylight
08 Apr - 12:28:51 10° SW 12:33:06 43° NW 12:37:44 10° NNE daylight
08 Apr - 19:31:08 10° N 19:34:51 17° NE 19:38:42 10° E daylight
08 Apr - 21:12:19 10° NNW 21:18:06 86° WSW 21:24:11 10° SSE visible
08 Apr - 22:57:59 10° W 23:00:00 12° WSW 23:02:01 10° WSW visible
09 Apr - 11:46:03 10° SSW 11:50:29 81° WNW 11:55:20 10° NNE daylight
09 Apr - 13:32:35 10° WNW 13:34:00 11° NW 13:35:27 10° NNW daylight
09 Apr - 18:50:08 10° NNE 18:51:48 11° NE 18:53:29 10° ENE daylight
09 Apr - 20:29:50 10° NNW 20:35:31 58° ENE 20:41:29 10° SE visible
09 Apr - 22:13:27 10° WNW 22:17:45 21° WSW 22:22:11 10° SSW visible
10 Apr - 11:03:43 10° S 11:08:01 52° ESE 11:12:40 10° NE daylight
10 Apr - 12:47:48 10° W 12:50:59 18° NW 12:54:21 10° N daylight
10 Apr - 19:47:33 10° NNW 19:52:49 36° NE 19:58:20 10° ESE daylight
10 Apr - 21:30:08 10° NW 21:35:25 36° WSW 21:40:54 10° S visible
11 Apr - 10:21:57 10° SSE 10:25:41 27° ESE 10:29:39 10° NE daylight
11 Apr - 12:04:07 10° WSW 12:08:06 30° NW 12:12:25 10° N daylight
11 Apr - 19:05:29 10° N 19:10:00 23° NE 19:14:41 10° E daylight
11 Apr - 20:47:15 10° NW 20:52:59 62° WSW 20:58:58 10° SSE visible
12 Apr - 09:41:08 10° SE 09:43:28 14° ESE 09:45:52 10° ENE daylight
12 Apr - 11:21:00 10° SW 11:25:23 53° WNW 11:30:10 10° NNE daylight
12 Apr - 18:23:48 10° N 18:27:02 15° NE 18:30:22 10° ENE daylight
12 Apr - 20:04:38 10° NNW 20:10:28 81° ENE 20:16:33 10° SSE visible
12 Apr - 21:49:18 10° WNW 21:52:27 15° WSW 21:55:40 10° SW visible
